Stations météo

réclame
Mon MeteoGroup
Helsingborg, Suède (2611): Température de l'air & dewpoint: 19.01.2020 01:00:00 - 25.01.2020 01:00:00 (CET)Helsingborg, Suède (2611): Vitesse du vent & gusts: 19.01.2020 01:00:00 - 25.01.2020 01:00:00 (CET)Helsingborg, Suède (2611): Direction du vent: 19.01.2020 01:00:00 - 25.01.2020 01:00:00 (CET)Helsingborg, Suède (2611): reduced air pressure: 19.01.2020 01:00:00 - 25.01.2020 01:00:00 (CET)Helsingborg, Suède (2611): visibility: 19.01.2020 01:00:00 - 25.01.2020 01:00:00 (CET)Helsingborg, Suède (2611): Quantités de précipitations: 19.01.2020 01:00:00 - 25.01.2020 01:00:00 (CET)
Date & Time tt [°C] td [°C] ff [km/h] ff [knt] fx [km/h] fx [knt] dd ppp [hPa] vv [km] rr [mm]
25.01.2020 01:00:00 5,6 3,8 13 7 30 16 W 1014,4 39 0,0
25.01.2020 00:00:00 6,2 4,4 13 7 31 17 W 1014,5 46 0,0
24.01.2020 23:00:00 6,5 5,1 12 6 26 14 W 1014,4 50 0,0
24.01.2020 22:00:00 6,4 5,5 10 6 29 16 WSW 1014,4 42 0,0
24.01.2020 21:00:00 6,5 5,4 13 7 26 14 WSW 1014,7 9 0,0
24.01.2020 20:00:00 6,6 5,5 15 8 26 14 W 1014,4 20 0,0
24.01.2020 19:00:00 6,5 5,6 12 6 23 12 W 1014,4 24 0,0
24.01.2020 18:00:00 6,3 5,4 13 7 23 12 WSW 1014,4 23 0,0
24.01.2020 17:00:00 6,4 5,4 14 8 25 14 WSW 1014,5 31 0,0
24.01.2020 16:00:00 6,1 5,2 11 6 24 13 W 1014,8 24 0,2
24.01.2020 15:00:00 6,0 5,0 14 8 27 15 W 1014,8 11 1,7
24.01.2020 14:00:00 6,4 5,0 11 6 31 17 W 1014,8 10 0,4
24.01.2020 13:00:00 6,8 5,0 12 7 28 15 W 1015,6 17 0,1
24.01.2020 12:00:00 6,6 4,9 15 8 32 17 W 1015,5 37 0,0
24.01.2020 11:00:00 6,4 4,9 16 8 29 15 WSW 1015,7 37 0,0
24.01.2020 10:00:00 6,2 4,9 14 7 24 13 WSW 1016,4 26 -
24.01.2020 09:00:00 6,0 5,1 13 7 26 14 WSW 1016,7 21 0,0
24.01.2020 08:00:00 6,0 5,3 12 7 26 14 W 1016,8 4,0 0,0
24.01.2020 07:00:00 6,3 5,6 14 8 27 15 WSW 1016,7 20 0,0
24.01.2020 06:00:00 6,2 5,8 13 7 23 12 WSW 1017,0 3,7 0,0
24.01.2020 05:00:00 5,9 5,5 9 5 19 10 SW 1017,1 8 0,1
24.01.2020 04:00:00 6,2 5,7 11 6 21 12 SW 1017,9 8 0,1
24.01.2020 03:00:00 6,3 5,9 10 5 24 13 WSW 1018,8 8 0,1
24.01.2020 02:00:00 6,3 6,0 12 6 24 13 WSW 1019,6 6 0,1
24.01.2020 01:00:00 6,0 5,7 10 6 24 13 SW 1020,4 3,2 0,2
24.01.2020 00:00:00 5,9 5,6 10 6 25 14 WSW 1021,1 2,9 0,5
23.01.2020 23:00:00 5,9 5,6 15 8 27 15 WSW 1021,3 3,7 0,0
23.01.2020 22:00:00 5,7 5,5 16 9 29 16 SW 1021,7 4,6 0,0
23.01.2020 21:00:00 5,6 5,3 15 8 29 16 SW 1022,2 4,5 0,0
23.01.2020 20:00:00 5,7 5,4 16 9 30 16 WSW 1022,7 6 0,0
23.01.2020 19:00:00 5,7 5,4 15 8 26 14 WSW 1023,2 2,6 0,0
23.01.2020 18:00:00 5,6 5,3 12 6 24 13 WSW 1023,7 1,9 0,0
23.01.2020 17:00:00 5,5 5,1 13 7 31 17 WSW 1024,2 3,5 0,0
23.01.2020 16:00:00 5,5 5,1 15 8 26 14 WSW 1024,4 7 0,0
23.01.2020 15:00:00 5,4 5,0 16 8 32 17 WSW 1025,1 4,3 0,0
23.01.2020 14:00:00 5,3 4,7 16 9 32 18 WSW 1025,7 3,9 0,0
23.01.2020 13:00:00 5,3 4,6 18 10 34 19 WSW 1026,1 6 0,0
23.01.2020 12:00:00 5,1 4,2 16 9 28 15 WSW 1027,3 10 0,0
23.01.2020 11:00:00 4,9 3,6 13 7 22 12 WSW 1028,0 41 0,0
23.01.2020 10:00:00 4,6 3,8 14 7 27 14 W 1028,5 27 0,0
23.01.2020 09:00:00 4,3 3,9 11 6 24 13 W 1029,2 20 0,0
23.01.2020 08:00:00 4,1 4,0 11 6 26 14 W 1029,3 15 0,0
23.01.2020 07:00:00 3,1 3,0 6 3 15 8 SW 1029,2 3,0 0,0
23.01.2020 06:00:00 2,4 2,3 7 4 13 7 SW 1029,5 0,6 0,0
23.01.2020 05:00:00 1,2 1,1 6 4 16 9 WSW 1030,0 0,4 0,0
23.01.2020 04:00:00 1,1 0,9 5 3 8 5 S 1030,6 0,2 0,0
23.01.2020 03:00:00 1,6 1,3 5 3 10 5 SW 1030,9 0,1 0,0
23.01.2020 02:00:00 -1,7 -2,1 4 2 8 4 SSW 1031,3 0,2 0,0
23.01.2020 01:00:00 -1,9 -2,3 3 1 4 2 SSE 1032,0 4,8 0,0
23.01.2020 00:00:00 -1,3 -1,9 0 0 3 2 N 1032,4 1,3 0,0
22.01.2020 23:00:00 -1,6 -2,2 0 0 7 4 N 1032,3 7 0,0
22.01.2020 22:00:00 -1,2 -2,0 0 0 5 3 N 1032,1 9 0,0
22.01.2020 21:00:00 -1,3 -2,1 0 0 7 4 N 1031,8 12 0,0
22.01.2020 20:00:00 0,0 -1,0 0 0 4 2 N 1031,2 14 0,0
22.01.2020 19:00:00 1,1 -0,4 0 0 10 5 N 1030,8 16 0,0
22.01.2020 18:00:00 1,9 0,4 9 5 13 7 NNW 1030,2 16 0,0
22.01.2020 17:00:00 2,5 0,1 7 4 16 9 N 1029,7 19 0,0
22.01.2020 16:00:00 4,5 1,3 9 5 31 17 N 1029,1 16 0,0
22.01.2020 15:00:00 6,8 2,7 22 12 39 21 NNW 1028,4 16 0,0
22.01.2020 14:00:00 7,8 3,1 22 12 37 20 NNW 1027,9 15 0,0
22.01.2020 13:00:00 8,1 3,6 26 14 49 27 NNW 1027,7 17 0,0
22.01.2020 12:00:00 7,9 3,0 31 17 46 25 NNW 1027,5 18 0,0
22.01.2020 11:00:00 7,4 3,8 20 11 36 19 NNW 1026,7 13 0,0
22.01.2020 10:00:00 5,9 3,9 13 7 32 17 NW 1026,3 11 0,0
22.01.2020 09:00:00 5,3 3,6 21 11 39 21 NW 1025,8 10 0,0
22.01.2020 08:00:00 5,2 3,5 15 8 36 19 NW 1024,8 - 0,0
22.01.2020 07:00:00 5,7 3,9 19 11 36 19 WNW 1024,4 10 0,0
22.01.2020 06:00:00 5,3 3,3 17 9 41 22 NW 1024,4 11 0,0
22.01.2020 05:00:00 5,7 3,4 22 12 45 25 WNW 1024,1 13 0,0
22.01.2020 04:00:00 5,9 3,0 23 13 46 25 WNW 1024,7 16 0,0
22.01.2020 03:00:00 5,9 2,9 23 13 44 24 WNW 1024,9 16 0,0
22.01.2020 02:00:00 5,9 2,4 21 12 40 22 W 1025,5 29 0,0
22.01.2020 01:00:00 6,2 2,5 26 14 45 24 WNW 1026,2 22 0,0
22.01.2020 00:00:00 5,9 2,5 22 12 42 23 WNW 1027,1 22 0,0
21.01.2020 23:00:00 6,1 2,9 21 12 39 21 W 1027,3 21 0,0
21.01.2020 22:00:00 6,1 3,3 19 10 37 20 W 1027,6 32 0,0
21.01.2020 21:00:00 6,1 3,4 17 9 36 20 W 1027,8 44 0,0
21.01.2020 20:00:00 6,8 4,3 19 11 38 20 W 1028,5 50 0,0
21.01.2020 19:00:00 7,1 4,7 21 12 39 21 W 1028,7 45 0,0
21.01.2020 18:00:00 7,5 5,5 19 11 37 20 W 1029,1 34 0,0
21.01.2020 17:00:00 7,4 5,9 18 10 34 18 W 1029,5 32 0,0
21.01.2020 16:00:00 7,0 5,8 18 10 37 20 W 1029,9 6 0,0
21.01.2020 15:00:00 7,0 5,3 15 8 36 19 W 1030,3 21 0,0
21.01.2020 14:00:00 7,0 5,0 24 13 42 23 W 1029,9 18 0,0
21.01.2020 13:00:00 7,2 4,8 23 12 40 22 W 1030,7 20 0,0
21.01.2020 12:00:00 7,0 4,5 20 11 40 22 W 1031,1 17 0,0
21.01.2020 11:00:00 6,9 4,4 23 12 39 21 WSW 1031,0 19 0,0
21.01.2020 10:00:00 6,7 4,5 18 10 36 20 WSW 1031,6 19 0,0
21.01.2020 09:00:00 6,3 4,0 22 12 40 22 W 1031,9 16 0,0
21.01.2020 08:00:00 6,2 3,5 21 11 39 21 WSW 1031,4 17 0,0
21.01.2020 07:00:00 6,1 3,4 21 12 44 24 W 1032,3 19 0,0
21.01.2020 06:00:00 5,8 3,8 20 11 44 24 W 1032,3 17 0,0
21.01.2020 05:00:00 5,6 4,1 23 13 46 25 WSW 1032,9 12 0,0
21.01.2020 04:00:00 5,8 3,7 19 11 36 19 WSW 1033,2 16 0,0
21.01.2020 03:00:00 5,8 3,6 20 11 38 20 W 1034,1 16 0,0
21.01.2020 02:00:00 6,0 3,5 22 12 38 20 WSW 1034,5 18 0,0
21.01.2020 01:00:00 6,0 3,8 13 7 38 21 WSW 1035,2 16 0,0
21.01.2020 00:00:00 6,2 4,2 17 9 32 17 WSW 1035,6 13 0,0
20.01.2020 23:00:00 6,3 4,1 16 9 31 17 WSW 1035,9 17 0,0
20.01.2020 22:00:00 6,4 3,9 13 7 32 17 WSW 1036,4 20 0,0
20.01.2020 21:00:00 6,5 4,0 14 8 30 16 W 1037,0 17 0,0
20.01.2020 20:00:00 6,6 3,9 16 8 27 15 W 1037,3 18 0,0
20.01.2020 19:00:00 6,6 3,7 16 9 29 16 W 1037,4 18 0,0
20.01.2020 18:00:00 6,7 3,8 14 7 30 16 W 1038,0 16 0,0
20.01.2020 17:00:00 6,5 4,0 11 6 25 13 WSW 1038,1 15 0,0
20.01.2020 16:00:00 6,5 3,9 14 8 35 19 WSW 1038,2 16 0,0
20.01.2020 15:00:00 6,6 4,1 16 9 31 17 WSW 1038,4 17 0,0
20.01.2020 14:00:00 6,4 4,2 14 8 28 15 WSW 1038,8 16 0,0
20.01.2020 13:00:00 6,4 4,4 16 8 27 15 WSW 1039,4 16 0,0
20.01.2020 12:00:00 5,9 4,5 13 7 23 12 SW 1039,7 14 0,0
20.01.2020 11:00:00 5,0 4,0 14 8 22 12 SSW 1039,9 13 0,0
20.01.2020 10:00:00 4,8 4,0 13 7 21 11 SW 1040,2 9 0,0
20.01.2020 09:00:00 4,6 4,0 11 6 18 10 SW 1040,2 9 0,0
20.01.2020 08:00:00 4,5 4,1 9 5 16 9 SW 1039,7 8 0,0
20.01.2020 07:00:00 4,2 3,8 7 4 15 8 SSW 1039,6 7 0,0
20.01.2020 06:00:00 4,1 3,7 9 5 14 8 SW 1039,6 8 0,0
20.01.2020 05:00:00 3,5 3,1 5 3 13 7 SW 1039,6 9 0,0
20.01.2020 04:00:00 2,9 2,4 5 3 14 8 SW 1039,8 8 0,0
20.01.2020 03:00:00 1,9 1,3 8 4 12 6 SW 1040,0 8 0,0
20.01.2020 02:00:00 1,1 0,2 7 4 10 5 SSW 1039,8 8 0,0
20.01.2020 01:00:00 1,7 0,4 5 3 11 6 WSW 1039,6 12 0,0
20.01.2020 00:00:00 1,4 0,1 5 3 11 6 SW 1039,1 12 0,0
19.01.2020 23:00:00 2,3 1,3 6 3 11 6 W 1039,0 13 0,0
19.01.2020 22:00:00 1,6 0,5 4 2 8 4 WSW 1038,4 15 0,0
19.01.2020 21:00:00 3,0 1,4 4 2 10 6 WNW 1037,8 18 0,0
19.01.2020 20:00:00 3,6 1,8 6 4 16 9 NW 1037,4 21 0,0
19.01.2020 19:00:00 4,2 2,7 9 5 16 9 NW 1036,3 19 0,0
19.01.2020 18:00:00 4,3 3,0 7 4 17 9 WNW 1035,4 16 0,0
19.01.2020 17:00:00 4,6 3,1 8 5 16 8 WNW 1034,5 15 0,0
19.01.2020 16:00:00 5,3 2,9 5 3 16 9 WNW 1033,6 18 0,0
19.01.2020 15:00:00 6,3 3,6 10 5 21 11 WNW 1032,7 17 0,0
19.01.2020 14:00:00 6,6 3,4 11 6 18 10 WNW 1031,8 21 0,0
19.01.2020 13:00:00 6,7 3,7 12 7 22 12 WNW 1031,2 20 0,0
19.01.2020 12:00:00 7,2 4,0 8 5 21 12 NW 1030,3 19 0,0
19.01.2020 11:00:00 5,9 4,1 9 5 16 9 WNW 1029,7 16 0,0
19.01.2020 10:00:00 4,2 3,3 3 2 7 4 W 1028,6 12 0,0
19.01.2020 09:00:00 3,3 2,1 4 2 13 7 WSW 1027,2 12 0,0
19.01.2020 08:00:00 4,4 2,9 7 4 12 7 W 1026,4 14 0,0
19.01.2020 07:00:00 4,7 3,0 6 3 13 7 W 1025,0 13 0,0
19.01.2020 06:00:00 4,9 3,1 7 4 18 10 W 1023,8 14 0,0
19.01.2020 05:00:00 4,6 2,9 10 5 21 11 W 1023,1 11 0,0
19.01.2020 04:00:00 4,2 2,7 11 6 24 13 W 1022,2 9 0,0
19.01.2020 03:00:00 4,2 2,7 15 8 25 13 WSW 1021,5 9 0,0
19.01.2020 02:00:00 4,1 2,5 11 6 24 13 WSW 1020,9 10 0,0
19.01.2020 01:00:00 4,5 2,5 13 7 24 13 WSW 1020,0 10 0,0

tt = Température de l'air
td = dewpoint
ff = Vitesse du vent
fx = gusts
dd = Direction du vent
ppp = reduced air pressure
vv = visibility
rr = Quantités de précipitations

stations d'obs. à proximité